{"data":{"norad_id":61609,"intl_designator":"2024-188R","name":"ONEWEB-0704","alt_names":[],"object_type":"PAYLOAD","status":"ACTIVE","operator":null,"country":"UK","launch_date":"2024-10-20","launch_site_code":"AFWTR","launch_vehicle":null,"mission":null,"orbit_class":"UNKNOWN","rcs_meters":null,"size_class":null,"mass_kg":null,"dimensions":null,"purposes":["comms"],"wikipedia_slug":null,"has_3d_model":false,"image_url":null,"decayed_at":null,"tle_current":{"epoch":"2026-09-19T14:23:52.163520Z","epoch_age_seconds":95959,"freshness":"FRESH","line1":"1 61609U 24188R   26262.59990930  .00000056  00000+0  12397-3 0  9992","line2":"2 61609  87.8911  17.4646 0000712 108.4617 251.6588 13.10376745 95650","mean_motion":13.10376745,"eccentricity":7.12e-5,"inclination_deg":87.8911,"raan_deg":17.4646,"arg_perigee_deg":108.4617,"mean_anomaly_deg":251.6588,"bstar":0.00012397,"rev_number":9565,"period_min":109.89206008841,"perigee_km":1221.1608546304,"apogee_km":1222.2430716987,"semimajor_km":7599.8389631645,"source":"CELESTRAK","updated_at":"2026-09-20T09:00:44.801343Z"}}}